Regional Weather Roundup
Issued by NWS Wakefield, VA

Home | Current Version | Previous Version | Text Only | Print | Product List | Glossary Off
Versions: 1 2 3 4 5 6 7 8 9 10 11 12 13 14 15 16 17 18 19 20 21 22 23 24 25 26 27 28 29 30 31 32 33 34 35 36 37 38 39 40 41 42 43 44 45 46 47 48 49 50

777
ASUS41 KAKQ 071315
RWRAKQ

REGIONAL WEATHER ROUNDUP
NATIONAL WEATHER SERVICE WAKEFIELD VA
800 AM EST WED DEC 07 2016

Note: "fair" indicates few or no clouds below 12,000 feet with no
significant weather and/or obstructions to visibility. * = Denotes
station may not report precipitation (e.g., rain,snow,etc.),
thunder or fog.

VAZ042-051-052>054-056-071400-
NORTHERN VIRGINIA

CITY           SKY/WX    TMP DP  RH WIND       PRES   REMARKS
WASH NATIONAL  CLOUDY    44  40  85 NW7       30.01R
DULLES         CLOUDY    40  37  89 N5        30.01R
FORT BELVOIR   CLOUDY    42  38  83 NW5       30.01R
QUANTICO       MOCLDY    43  39  86 CALM      30.03R
FREDERICKSBRG* CLOUDY    39  39 100 SW3       30.01R FOG
STAFFORD*      PTCLDY    38  38 100 CALM      30.05R
WARRENTON        N/A     37  34  87 CALM      30.01R FOG
CULPEPER*      CLOUDY    37  37 100 CALM      30.03R
MANASSAS*      NOT AVBL
LEESBURG*      MOCLDY    41  41 100 MISG      30.02R
WINCHESTER     CLOUDY    41  34  75 NW12G20   30.01R
FRONT ROYAL*   FAIR      36  36 100 CALM      30.00S
LURAY*         FOG       36  36 100 CALM      30.01R VSB 1/4
$$

VAZ048-049-060>072-079>083-071400-
CENTRAL AND SOUTH CENTRAL VIRGINIA

CITY           SKY/WX    TMP DP  RH WIND       PRES   REMARKS
RICHMOND       MOCLDY    43  40  89 NW8       30.02R
CHESTERFIELD*  PTSUNNY   43  27  52 CALM      30.03R
PETERSBURG*    CLOUDY    43  41  92 NW5       30.03R
HANOVER        CLEAR     40  38  93 CALM      30.04R
TAPPAHANNOCK*  CLEAR     43  43 100 E3        30.01R
QUINTON*       CLOUDY    43  42  97 MISG      30.01R
CHARLOTTSVILLE PTCLDY    40  38  93 S5        29.99R
GORDONSVILLE*  FAIR      37  37 100 CALM      30.01R
ORANGE*          N/A     39  39 100 CALM      30.03R FOG
LOUISA*        PTCLDY    37  37 100 CALM      30.00R FOG
BUMPASS*       FAIR      35  35 100 CALM      30.02R
FARMVILLE*     PTCLDY    33  33 100 CALM      30.01R FOG
CREWE*         CLOUDY    37  37 100 CALM      30.02R VSB 1/4
FORT PICKETT*  CLOUDY    42  39  88 NW5       30.02R
CHASE CITY*    CLOUDY    33  32  96 CALM      30.02R VSB 1/2
CLARKSVILLE*   FAIR      34  34 100 CALM      30.02R
SOUTH HILL*    CLEAR     36  36 100 CALM      30.08R
LAWRENCEVILLE* CLOUDY    43  41  93 NW8       30.02R
EMPORIA*       CLOUDY    43  41  93 W6        30.04R
$$

VAZ088>098-071400-
SOUTHEAST VIRGINIA

CITY           SKY/WX    TMP DP  RH WIND       PRES   REMARKS
NORFOLK        CLOUDY    47  44  90 VRB6      29.99R
VIRGINIA BEACH CLOUDY    46  44  93 NW14      29.98R
NORFOLK NAVAL  CLOUDY    47  44  90 NW9       30.01R
WEST POINT*    CLOUDY    44  43  95 W5        30.03R
SALUDA*        CLOUDY    45  44  97 NW7       29.99R
NEWPORT NEWS   CLOUDY    46  43  89 NW8       30.00R
LANGLEY AFB    CLOUDY    46  44  94 W6        29.99R
FORT EUSTIS    CLOUDY    46  42  88 NW12      29.98R
WILLIAMSBURG*  CLOUDY    46  45  93 NW6       30.01R
HR EXEC AP*    CLOUDY    45  43  93 NW3       29.99R
FRANKLIN*      CLOUDY    44  42  93 NW8       30.02R
US460-WAKEFLD  CLOUDY    44  43  96 CALM      30.02R FOG
$$

VAZ020-022-025-037-045-071400-
WEST CENTRAL AND SOUTHWEST VIRGINIA

CITY           SKY/WX    TMP DP  RH WIND       PRES   REMARKS
STAUNTON*      FOG       32  32 100 CALM      30.02R VSB 1/4
WAYNESBORO*    FAIR      34  33  96 CALM      29.98S
HOT SPRINGS VA PTCLDY    32  32 100 NW18G24   29.92R WCI  20
LYNCHBURG      CLOUDY    33  33 100 CALM      30.01R
DANVILLE       CLEAR     32  32 100 S6        30.02S FOG
SOUTH BOSTON*  CLOUDY    31  30  95 CALM      30.03R VSB<1/4
MARTINSVILLE   CLEAR     30  29  98 CALM      30.06R
ROANOKE        CLOUDY    43  35  73 VRB3      30.03R
BLACKSBURG     CLEAR     38  32  80 CALM      30.04R
DUBLIN*        CLEAR     39  33  78 CALM      30.03R
MARION*        CLEAR     37  32  82 W9        30.05R
HILLSVILLE*    CLOUDY    36  33  90 CALM      29.99R
RICHLANDS*     FAIR      34  33  96 N3        30.05R
WISE*          CLEAR     34  34 100 CALM      30.07R
ABINGDON*      CLEAR     36  33  90 CALM      30.07R
$$

MDZ021>025-VAZ099-100-071400-
SOUTHERN MARYLAND AND THE DELMARVA PENINSULA

CITY           SKY/WX    TMP DP  RH WIND       PRES   REMARKS
PATUXENT RIVER MOCLDY    45  42  89 NW13      29.99R
BAY BRIDGE APT CLOUDY    45  41  87 N6        30.00R FOG
LEONARDTOWN    MOCLDY    43  39  87 W3        30.00S
DOVER          CLOUDY    42  42 100 NW13      29.98R
GEORGETOWN     CLOUDY    44  42  93 NW9       29.98R FOG
EASTON         CLOUDY    45  41  87 N7        30.02R
CAMBRIDGE      CLOUDY    43  41  93 N9        29.99R
SALISBURY      CLOUDY    44  43  96 NW16      29.97R
OCEAN CITY     CLOUDY    45  44  97 N13       29.95R
WALLOPS ISLAND CLOUDY    45  45 100 NW10      29.96R
ACCOMACK*      CLOUDY    46  44  94 NW12G20   29.97R
$$

NCZ012>017-030>032-071400-
NORTH CENTRAL AND EASTERN NORTH CAROLINA

CITY           SKY/WX    TMP DP  RH WIND       PRES   REMARKS
ROANOKE RAPIDS CLOUDY    43  41  93 CALM      30.02R
RALEIGH        PTCLDY    38  37  97 SW3       30.03R
ELIZABETH CITY CLOUDY    46  44  93 NW14G22   29.98R
AHOSKIE*       CLOUDY    43  42  95 CALM      30.02R
EDENTON*       CLOUDY    46  44  90 NW12      30.01R
CURRITUCK*     CLOUDY    46  46 100 NW8       29.97R
KILL DEVIL HLS CLOUDY    47  47 100 NW7G17    29.94R
MANTEO         CLOUDY    47  46  96 N10G17    29.96R
CAPE HATTERAS  CLOUDY    48  45  89 NW12G23   29.96R
TARBORO*       NOT AVBL
GOLDSBORO      CLEAR     44  44  99 W5        30.01R
WASHINGTON     CLOUDY    45  43  91 NW6       30.01R
GREENVILLE     CLEAR     45  43  93 N3        30.03R
NEW BERN       CLOUDY    46  42  86 NW10      30.02R
WILMINGTON     CLOUDY    44  43  96 NW7       30.03R
$$

VAZ048-071400-
ELSEWHERE

CITY           SKY/WX    TMP DP  RH WIND       PRES   REMARKS
HARRISBURG PA  CLOUDY    39  39 100 NW6       29.99S
BALTIMORE      CLOUDY    41  41 100 NW3       30.00R
ANNAPOLIS      CLOUDY    45  41  86 N7        29.99R
ANDREWS AFB    CLOUDY    42  40  92 NW6       29.99R
PHILADELPHIA   DRIZZLE   41  38  89 NW10G17   30.00R FOG
HENDERSON NC   CLEAR     32  32  99 CALM      30.02R
GREENSBORO     PTCLDY    38  37  97 W3        30.03R
ROCKY MOUNT    CLEAR     42  42 100 CALM      30.03R
$$

VAZ100-071400-
MARINE

STATION/POSITION TIME  TEMP    WIND        PRES    WAVE   SWELL
                       AIR SEA DIR/SP/G            HT/PER HT/PER
                 (UTC) (F)     (DEG/KT/KT) (MB)    (FT/S) (FT/S)
BRANDYWINE LGT   1242   43     350/ 19/ 23   N/A
CAPE MAY NJ      1242   44 49   CALM  /  5 1013.3R
LEWES DE         1242   44 48  340/ 17/ 19 1013.8R
OCEAN-CITY-INLET 1236   45 50  350/ 13/ 17 1013.9R
WACHAPREAGUE VA  1236   45 49  320/  6/ 12 1014.3R
THOMAS POINT MD  1200   43 49  320/  9/ 10   N/A
GOOSES REEF MD   1300   45 49   10/ 14/ 16 1016.0    1/ 2
COVE POINT MD    1236   44     360/ 14/ 18 1015.8R
SOLOMONS ISLAND  1236   44 50  320/  5/ 10   N/A
BISHOPS HEAD MD  1236   44 46  340/ 12/ 15 1015.4R
PINEY POINT MD   1236          350/ 12/ 13   N/A
POTOMAC MD       1300   45 50  340/ 10/ 12 1014.5    1/ 2
CAMBRIDGE MD     1236   45 47  330/ 13/ 15 1014.6R
LEWISETTA VA     1236   45 48  350/ 10/ 16 1015.1R
RAPPAHANNOCK LGT 1236          330/ 21/ 23 1015.2R
STINGRAY PT      1300   46     340/ 10/ 14 1016.0    1/ 2
YORK RVR RNG VA  1236   46     330/ 12/ 14 1014.9R
YORKTOWN VA      1236   46 51  300/ 10/ 13 1015.1R
JAMESTOWN VA     1300   45 52  310/ 12/ 16   N/A
DOMINION TERM VA 1236   46     330/ 12/ 15 1015.4R
KIPTOPEKE VA     1236      52  330/ 18/ 20   N/A
CHES BAY BRIDGE  1236   47 53  330/ 14/ 19 1014.8R
CAPE HENRY VA    1236   47     310/ 18/ 21   N/A
WILLOUBY STN VA  1236   46     310/ 11/ 12 1016.2R
S CRANEY ISL VA  1236   47     310/  9/ 12 1015.0R
CAPE HENRY BUOY  1242      55                N/A     7/ 9   2/11
CAPE CHARLES BUO 1256      55                N/A     5/11   2/11
OFFSHORE WE BUOY 1221      56                N/A     9/ 9   2/11
64NM E OF VA BCH 1150   53 59  340/ 25/ 31 1010.6   10/ 6   3/11
DUCK PIER NC     1236   47 54  320/ 16/ 19 1013.5R
44100 DUCK FRF   1205      56                N/A     7/ 8   2/11
OREGON INLET NC  1236   48 56  310/ 13/ 19 1013.9R
HATTERAS NC      1236   49 60  320/ 20/ 24 1013.7R
DIAMOND SHLS NC  1150   54 74  330/ 21/ 27 1012.6    7/ 5   2/11
CAPE LOOKOUT NC  1200   47     320/ 13/ 16 1014.5R
$$




USA.gov is the U.S. government's official web portal to all federal, state and local government web resources and services.